Tracking 18980 objects as of 19-Feb-2018
HD Live streaming from Space Station
objects crossing your sky now

FENGYUN 1C DEB

Track FENGYUN 1C DEB now!
10-day predictions


NORAD ID: 30597
Int'l Code: 1999-025AMC
Perigee: 705.9 km
Apogee: 889.6 km
Inclination: 98.9 °
Period: 100.7 minutes
Semi major axis: 7168 km
RCS: 0.0151 m2 (small)
Launch date: May 10, 1999
Source: People's Republic of China (PRC)
Launch site: Taiyaun Space Center, China (TSC)

Note: This is SATELLITE DEBRIS
aabbcc
Your satellite tracking list
Your tracking list is empty




NASA's NSSDC Master Catalog

Two Line Element Set (TLE):
1 30597U 99025AMC 18050.26922776 +.00001056 +00000-0 +38917-3 0  9997
2 30597 098.9278 166.2074 0128144 336.7870 022.7555 14.30326718574343
Source of the keplerian elements: AFSPC